"Pseudo-MPEC" for C076EZ5

Created 2021 Jun 17 4:07:09 UT using Find_Orb

Click here for an explanation of pseudo-MPECs

 
 Astrometry: 
     C076EZ5  C2021 05 20k@hn]NR-!8Yjf1T(q/5Q*b:lX[iS/s9!m[IQ08e:qVZ\0bTtQ+X9V00
     C076EZ5  C2021 05 20JL[m%kArF4Soe=K#)?O_y1I;?wl%V,%ZX:(7+I/+7U#ZZc/yAK;`V00
     C076EZ5  C2021 05 20IaeYmD9%_ADj%P(B+_e??e)A?JF4dou*NiNBH3c?X.Dbjfm)hXHaV00
     C076EZ5  C2021 05 20xQ(=UOQ@xLJ'oRI@2]Rt':dH-Gj?pR=!Z41ce+bl/iaalY'$pYSRV00
     C076EZ5 KC2021 05 22.37124 21 23 21.66 +04 59 20.5    ~5MAq 21.7 GVNEOCP291
     C076EZ5 |C2021 05 22Mq4?AstrometryjTiBKDW`U@%`(qoK3W=redacted;l8vcLO;yo4807
     C076EZ5 |C2021 05 22?9B.\mS9-b3click3Ip^AqO9dh5'nvmk[8*#@KS32Gy?=^]8UgQs807
     C076EZ5 |C2021 05 22/@T#^PJWu`oZ=oh#h!siT8`8OxH*u%hereJP(c-@Vm560^jSaX.4807
     C076EZ5 KC2021 05 22.39723 21 23 21.11 +04 59 17.0    ~5MAq 21.7 GVNEOCP291
     C076EZ5 KC2021 05 22.42321 21 23 20.53 +04 59 13.3    ~5MAq 21.8 GVNEOCP291
     C076EZ5 KC2021 05 23.43461 21 22 58.66 +04 56 55.2    ~5NBb 21.8 RoNEOCP291
     C076EZ5 KC2021 05 23.44946 21 22 58.35 +04 56 53.6    ~5NBb       oNEOCP291
     C076EZ5 KC2021 05 29.39572 21 20 32.29 +04 41 31.2    ~5TAq 20.9 RoNEOCP291
     C076EZ5 KC2021 05 29.41041 21 20 31.86 +04 41 28.7    ~5TAq 21.4 RoNEOCP291
     C076EZ5 DC2021 05 29!bLaUV`#LDxRn(4W/AQeh@US%E`@XHUY0[A?7[v%upMW*_fj+H1`695
     C076EZ5 DC2021 05 29Uj`;0c?wNUrGlSDd2sZ:P?y=yi!T=WD#LUAjNr)7?PDc:1\OK3n$695
     C076EZ5 DC2021 05 29*Gm`HH#YF`UGPfor*@31A=U_Xfu-7bU;lc-Je0^17Dg8tKXv8iqV695
     C076EZ5 KC2021 05 30.36528 21 20 05.55 +04 38 42.3    ~5UAb 21.7 RoNEOCP291
     C076EZ5 KC2021 05 30.37911 21 20 05.19 +04 38 40.1    ~5UAb       oNEOCP291
     C076EZ5 KC2021 05 31.35902 21 19 37.30 +04 35 43.9    ~5VBM 22.2 RoNEOCP291
     C076EZ5 KC2021 05 31.40506 21 19 36.00 +04 35 35.3    ~5VBM 22.0 RoNEOCP291
     C076EZ5 KC2021 06 01.35974 21 19 08.03 +04 32 38.2    ~61Ab 21.1 RoNEOCP291
     C076EZ5 KC2021 06 01.37165 21 19 07.64 +04 32 35.2    ~61Ab 21.7 RoNEOCP291
     C076EZ5 KC2021 06 01.38370 21 19 07.31 +04 32 33.2    ~61Ab 21.5 RoNEOCP291
     C076EZ5 KC2021 06 05.36444 21 17 01.87 +04 19 12.6    ~65Ab       oNEOCP291
     C076EZ5 KC2021 06 05.37483 21 17 01.55 +04 19 10.7    ~65Ab 20.9 RoNEOCP291
     C076EZ5 KC2021 06 05.38522 21 17 01.18 +04 19 08.4    ~65Ab 21.2 RoNEOCP291
     C076EZ5 KC2021 06 06.23706021 16 32.47 +04 16 05.4    ~66Dq 20.7 GXNEOCPY00
     C076EZ5 KC2021 06 06.25050921 16 31.98 +04 16 02.6    ~66Dq 20.7 GXNEOCPY00
     C076EZ5 KC2021 06 06.26394121 16 31.51 +04 15 59.5    ~66Dq 20.9 GXNEOCPY00
     C076EZ5 KC2021 06 07.41601 21 15 51.66 +04 11 40.9    ~67Aq 21.0 RoNEOCP291
     C076EZ5 KC2021 06 07.42499 21 15 51.34 +04 11 38.6    ~67Aq 21.1 RoNEOCP291
     C076EZ5 KC2021 06 07.43397 21 15 51.02 +04 11 36.6    ~67Aq       oNEOCP291
     C076EZ5 KC2021 06 08.40094 21 15 16.66 +04 07 55.3    ~68Cb 21.1 RoNEOCP691
     C076EZ5 KC2021 06 08.41184 21 15 16.21 +04 07 51.0    ~68Cb 20.6 RoNEOCP691
     C076EZ5 KC2021 06 08.42274 21 15 15.84 +04 07 48.9    ~68Cb 20.7 RoNEOCP691
     C076EZ5 KC2021 06 09.39163 21 14 40.52 +04 03 59.2    ~69Ab       oNEOCP691
     C076EZ5 KC2021 06 09.40563 21 14 40.00 +04 03 55.7    ~69Ab 21.8 RoNEOCP691
     C076EZ5 KC2021 06 09.41964 21 14 39.49 +04 03 53.0    ~69Ab 21.5 RoNEOCP691
     C076EZ5 KC2021 06 10.37509 21 14 03.79 +03 59 59.9    ~6AAb 21.4 GVNEOCP291
     C076EZ5 KC2021 06 10.38408 21 14 03.45 +03 59 57.4    ~6AAb 21.9 GVNEOCP291
     C076EZ5 KC2021 06 10.39307 21 14 03.11 +03 59 55.3    ~6AAb 21.6 GVNEOCP291
     C076EZ5 KC2021 06 11.39350 21 13 24.86 +03 55 44.7    ~6BB7 21.4 GVNEOCP291
     C076EZ5 KC2021 06 11.40408 21 13 24.44 +03 55 42.0    ~6BB7 21.4 GVNEOCP291
     C076EZ5 KC2021 06 11.41463 21 13 24.03 +03 55 39.0    ~6BB7       VNEOCP291
     C076EZ5 KC2021 06 12.35966 21 12 47.06 +03 51 36.4    ~6C9b       oNEOCP691
     C076EZ5 KC2021 06 12.37313 21 12 46.53 +03 51 32.9    ~6C9b 21.1 RoNEOCP691
     C076EZ5 |C2021 06 12y04e,AWnPL;RiHV.X:tI^;b2ftb$dZZ=jn\Pi9E?@`Kcb(rtBlD'H06
     C076EZ5 |C2021 06 12-`9sZQx62;ZZx1$k0weJIO2+G,Mm*.DM%X$WH6M(KKmOp#6'Oe9ZH06
     C076EZ5  C2021 06 13fbY^J3)L`b^ds,UFiK\/B:52A?w5S=i;PMfc0l#rQAl]vlLVc?:WF51
     C076EZ5  C2021 06 13ULRN#g'@VwJ^=gH/ju`1Axb3$Qg8kxGqQutVexplanationnOSrgF51
     C076EZ5  C2021 06 13p_5O0@aQ#?wup3=Z3nUbf20o?)66hLpr66YB/6a,1W$EMAY;ii#VF51
     C076EZ5  C2021 06 13Ug%tp09BZ1XqDZZ;@kMDjfJ;/9r?n`EB0a-#]g4;^Xpl188^](9#F51
     C076EZ5 KC2021 06 14.39755 21 11 24.59 +03 42 30.3    ~6EAq 21.5 RoNEOCP691
     C076EZ5 KC2021 06 14.40301 21 11 24.31 +03 42 28.9    ~6EAq 21.2 RoNEOCP691
     C076EZ5 KC2021 06 14.40848 21 11 24.11 +03 42 26.9    ~6EAq 21.4 RoNEOCP691

Station data:
(291) LPL/Spacewatch II  (N31.961669 W111.599905)  US/Arizona.  Observers J.
   V. Scotti, R. S. McMillan. 1.8-m f/2.7 reflector + CCD.
(691) Steward Observatory, Kitt Peak - Spacewatch  (N31.962174 W111.600327)
   US/Arizona.  Observer J. V. Scotti. 0.9-m f/3 reflector + CCD.
(695) Kitt Peak  (N31.958398 W111.594670)  US/Arizona.
(807) Cerro Tololo Observatory, La Serena  (S30.169136 W70.805900)  Chile.
(F51) Pan-STARRS 1, Haleakala  (N20.707235 W156.255910)  US/Hawaii.
   Observers N. Primak, A. Schultz, S. Watters, J. Thiel, T. Goggia. Measurer
   PS1 Science Consortium. 1.8-m Ritchey-Chrétien + CCD.
(H06) RAS Observatory, Mayhill  (N32.903325 W105.528700)  US/New
   Mexico.  Observers E. Guido, G. Sostero, V. Gonano, L. Donato.
(V00) Kitt Peak-Bok  (N31.963127 W111.600190)  US/Arizona.
(Y00) SONEAR Observatory, Oliveira  (S20.715082 W44.784960)  Brazil.
   Observers C. Jacques, E. Pimentel, J. Barros. Measurer C. Jacques. 0.28-m
   f/2.2 astrograph + CCD.

Orbital elements:  C076EZ5
   Perihelion 2022 Jan 31.964700 +/- 8.03803 TT = 23:09:10 (JD 2459611.464700)
Epoch 2021 Jun 14.0 TT = JDT 2459379.5   Ju: 0.0835           AutoNEOCP
M 359.99544881 +/- 0.1622002        (J2000 ecliptic)
n   0.00001962 +/-                  Peri.  181.75330 +/- 1.0202058
a1361.44773 +/-                     Node   114.45391 +/- 0.0785097
e   0.9961561 +/- 0.0276898         Incl.  134.78079 +/- 0.1413164
P  50234                   H 13.9   G  0.15   U  7.0  
q 5.23316080 +/- 0.0156998    Q 2717.66230 +/- 2469
From 56 observations 2021 May 20-June 14; mean residual 0".29
Residuals in arcseconds: 
210520 V00  .22+  .11-    210531 291  .74-  .39+    210609 691  .31+  .31+    
210520 V00  .02+  .27-    210531 291  .01-  .18+    210610 291  .17-  .02+    
210520 V00  .42+  .53-    210601 291  .20-  .55+    210610 291  .11-  .26-    
210520 V00  .22+  .10-    210601 291  .66-  .21-    210610 291  .04-  .14-    
210522 291  .17+  .14+    210601 291  .16-  .06+    210611 291  .19+  .12-    
210522 807  .00   .59-    210605 291  .04-  .04-    210611 291  .13+  .14-    
210522 807  .24-  .33-    210605 291  .42+  .27+    210611 291  .19+  .46-    
210522 807  .29-  .09+    210605 291  .13+  .19+    210612 691  .02-  .24+    
210522 291  .29+  .10+    210606 Y00  .21+  .04+    210612 691  .13+  .24+    
210522 291  .01+  .13-    210606 Y00  .13-  .19+    210612 H06  .04+  .17-    
210523 291  .21-  .01-    210606 Y00  .18-  .03+    210612 H06  .09-  .14-    
210523 291  .16+  .45+    210607 291  .02-  .07+    210613 F51  .28+  .51-    
210529 291  .23+  .08+    210607 291  .01-  .19-    210613 F51  .05+  .68-    
210529 291  .14-  .10+    210607 291  .00   .16-    210613 F51  .25+  .41-    
210529 695  .28+  .04-    210608 691  .40+  1.2+    210613 F51  .26+  .26-    
210529 695  .14-  .10-    210608 691  .37-  .52-    210614 691  .20+  .22+    
210529 695  .19+  .03+    210608 691  .06+  .08-    210614 691  .56-  .33+    
210530 291  .40-  .06+    210609 691  .01+  .21-    210614 691  .12-  .17-    
210530 291  .08+  .30+    210609 691  .08+  .35-    

Ephemerides (geocentric):
Date (UTC) HH   RA              Dec         delta   r     elong  mag " sig PA
---- -- -- --  -------------   -----------  ------ ------ -----  --- ---- ---
2021 06 17 04  21 09 26.608   +03 29 20.94  4.8879 5.5054 122.8 21.7 .298  82
2021 06 17 05  21 09 24.782   +03 29 08.63  4.8872 5.5053 122.9 21.7 .302  82
2021 06 17 06  21 09 22.955   +03 28 56.30  4.8865 5.5052 122.9 21.7 .307  82
2021 06 17 07  21 09 21.126   +03 28 43.96  4.8858 5.5051 123.0 21.7 .311  82
2021 06 17 08  21 09 19.296   +03 28 31.61  4.8851 5.5050 123.0 21.7 .315  82
2021 06 17 09  21 09 17.464   +03 28 19.24  4.8844 5.5049 123.1 21.7 .319  82
2021 06 17 10  21 09 15.631   +03 28 06.87  4.8837 5.5049 123.1 21.7 .324  82
2021 06 17 11  21 09 13.796   +03 27 54.47  4.8830 5.5048 123.2 21.7 .328  82
2021 06 17 12  21 09 11.960   +03 27 42.07  4.8823 5.5047 123.2 21.7 .332  82
2021 06 17 13  21 09 10.122   +03 27 29.65  4.8816 5.5046 123.2 21.7 .337  81
2021 06 17 14  21 09 08.283   +03 27 17.22  4.8809 5.5045 123.3 21.7 .341  81
2021 06 17 15  21 09 06.442   +03 27 04.78  4.8802 5.5044 123.3 21.7 .345  81
2021 06 17 16  21 09 04.599   +03 26 52.33  4.8795 5.5043 123.4 21.7 .350  81
2021 06 17 17  21 09 02.755   +03 26 39.86  4.8788 5.5042 123.4 21.7 .354  81
2021 06 17 18  21 09 00.910   +03 26 27.38  4.8781 5.5041 123.5 21.7 .359  81
2021 06 17 19  21 08 59.063   +03 26 14.88  4.8775 5.5040 123.5 21.7 .364  81
2021 06 17 20  21 08 57.215   +03 26 02.38  4.8768 5.5039 123.6 21.7 .368  81
2021 06 17 21  21 08 55.365   +03 25 49.86  4.8761 5.5038 123.6 21.7 .373  81
2021 06 17 22  21 08 53.514   +03 25 37.33  4.8754 5.5037 123.6 21.7 .378  81
2021 06 17 23  21 08 51.661   +03 25 24.78  4.8747 5.5036 123.7 21.7 .382  81
2021 06 18 00  21 08 49.806   +03 25 12.22  4.8740 5.5035 123.7 21.7 .387  81
2021 06 18 01  21 08 47.950   +03 24 59.65  4.8733 5.5034 123.8 21.7 .392  81
2021 06 18 02  21 08 46.093   +03 24 47.07  4.8726 5.5033 123.8 21.7 .397  81
2021 06 18 03  21 08 44.234   +03 24 34.47  4.8719 5.5032 123.9 21.7 .402  81
2021 06 18 04  21 08 42.374   +03 24 21.86  4.8712 5.5031 123.9 21.7 .406  81
2021 06 18 05  21 08 40.512   +03 24 09.24  4.8705 5.5030 124.0 21.7 .411  81
2021 06 18 06  21 08 38.648   +03 23 56.61  4.8698 5.5029 124.0 21.7 .416  80
2021 06 18 07  21 08 36.784   +03 23 43.96  4.8691 5.5028 124.1 21.7 .421  80
2021 06 18 08  21 08 34.917   +03 23 31.30  4.8684 5.5027 124.1 21.7 .426  80
2021 06 18 09  21 08 33.049   +03 23 18.62  4.8677 5.5027 124.1 21.7 .431  80
2021 06 18 10  21 08 31.180   +03 23 05.94  4.8671 5.5026 124.2 21.7 .436  80
2021 06 18 11  21 08 29.309   +03 22 53.24  4.8664 5.5025 124.2 21.7 .442  80
2021 06 18 12  21 08 27.437   +03 22 40.53  4.8657 5.5024 124.3 21.7 .447  80
2021 06 18 13  21 08 25.563   +03 22 27.80  4.8650 5.5023 124.3 21.7 .452  80
2021 06 18 14  21 08 23.687   +03 22 15.06  4.8643 5.5022 124.4 21.7 .457  80
2021 06 18 15  21 08 21.810   +03 22 02.31  4.8636 5.5021 124.4 21.7 .462  80
2021 06 18 16  21 08 19.932   +03 21 49.55  4.8629 5.5020 124.5 21.7 .468  80
2021 06 18 17  21 08 18.052   +03 21 36.77  4.8622 5.5019 124.5 21.7 .473  80
2021 06 18 18  21 08 16.171   +03 21 23.98  4.8615 5.5018 124.5 21.7 .478  80
2021 06 18 19  21 08 14.288   +03 21 11.18  4.8609 5.5017 124.6 21.7 .484  80
2021 06 18 20  21 08 12.403   +03 20 58.36  4.8602 5.5016 124.6 21.7 .489  80
2021 06 18 21  21 08 10.518   +03 20 45.54  4.8595 5.5015 124.7 21.7 .495  80
2021 06 18 22  21 08 08.630   +03 20 32.69  4.8588 5.5014 124.7 21.7 .500  80
2021 06 18 23  21 08 06.741   +03 20 19.84  4.8581 5.5013 124.8 21.7 .506  80
2021 06 19 00  21 08 04.851   +03 20 06.97  4.8574 5.5012 124.8 21.7 .511  80
2021 06 19 01  21 08 02.959   +03 19 54.09  4.8567 5.5011 124.9 21.7 .517  80
2021 06 19 02  21 08 01.066   +03 19 41.20  4.8561 5.5010 124.9 21.7 .523  79
2021 06 19 03  21 07 59.171   +03 19 28.29  4.8554 5.5009 125.0 21.6 .528  79